Flag for Germany Weather past 2 weeks in Gifhorn, Lower Saxony, Germany

Now
39 °F

Passing clouds.


Feels Like: 36 °F
Forecast: 44 / 50 °F
Wind: 5 mph from West

Location: Celle Airport

Current Time: Mar 28, 2015 at 5:39:23 AM

Latest Report: Mar 28, 2015 at 4:20 AM


Visibility: 6 mi

Pressure: 30.15 "Hg

Humidity: 93%

Dew point: 37 °F

Location of GifhornLocation

Historic Weather in Gifhorn — Graph

°F

Gifhorn temperature yesterday

Maximum temperature yesterday: 46 °F (at 9:20 AM)
Minimum temperature yesterday: 41 °F (at 12:20 AM)
Average temperature yesterday: 43 °F

Past Weeks' High & Low Weather Summary

 TemperatureHumidityPressure
High61 °F (Mar 25, 3:20 PM)100% (Mar 20, 11:20 PM)30.42 "Hg (Mar 20, 11:20 PM)
Low27 °F (Mar 20, 5:20 AM)31% (Mar 19, 3:20 PM)29.65 "Hg (Mar 25, 3:20 PM)
Average42 °F74%30.14 "Hg
* Reported Mar 13 3:20 AM — Mar 28 3:20 AM, Gifhorn, Weather by CustomWeather, © 2015

Note: Actual official high and low records may vary slightly from our data, if they occured in-between our weather recording intervals... More about our weather records

Advertising

Gifhorn weather history for previous 24 hours

 ConditionsComfort  
Time TempWeatherWind HumidityBarometerVisibility
3:20 AM
Sat, Mar 28
39 °FPassing clouds.3 mph93%30.15 "Hg6 mi
2:20 AM39 °FPassing clouds.5 mph93%30.15 "Hg6 mi
1:20 AM39 °FPassing clouds.5 mph93%30.15 "Hg6 mi
12:20 AM39 °FPassing clouds.6 mph93%30.15 "Hg6 mi
11:20 PM
Fri, Mar 27
41 °FPassing clouds.6 mph87%30.12 "Hg6 mi
10:20 PM41 °FPassing clouds.6 mph93%30.12 "Hg6 mi
9:20 PM41 °FPassing clouds.12 mph93%30.09 "Hg6 mi
8:20 PM43 °FLight rain. Passing clouds.10 mph87%30.07 "HgN/A
7:20 PM43 °FPassing clouds.12 mph87%30.04 "HgN/A
6:20 PM43 °FPartly sunny.12 mph87%30.01 "HgN/A
5:20 PM43 °FBroken clouds.17 mph87%29.98 "HgN/A
4:20 PM43 °FPartly sunny.14 mph93%29.95 "HgN/A
2:20 PM43 °FBroken clouds.18 mph87%29.92 "HgN/A
1:20 PM45 °FPartly sunny.17 mph71%29.89 "HgN/A
12:20 PM46 °FPartly sunny.22 mph66%29.89 "HgN/A
11:20 AM45 °FBroken clouds.16 mph81%29.86 "HgN/A
10:20 AM43 °FBroken clouds.13 mph87%29.86 "Hg6 mi
9:20 AM46 °FBroken clouds.16 mph76%29.83 "HgN/A
8:20 AM43 °FBroken clouds.12 mph87%29.83 "HgN/A
7:20 AM43 °FPartly sunny.10 mph87%29.80 "HgN/A
6:20 AM43 °FBroken clouds.9 mph87%29.77 "Hg4 mi
5:20 AM43 °FPartly cloudy.8 mph87%29.77 "Hg4 mi
Weather by CustomWeather, © 2015

See weather overviewHow to use our weather pages